Location: *
(32.8667°N, 13.1833°E)
Time: 16:43:38
(UTC+00:00)

Cosmos 2221 - Pass Details

Date: 18 July 2019
Orbit: 594 x 615 km, 82.5° (Epoch: 23 August)

Event Time Altitude Azimuth Distance (km) Brightness Sun altitude
Rises 19:19:08 0° 345° (NNW) 2,881 6.8 -12.4°
Reaches altitude 10° 19:21:25 10° 339° (NNW) 1,975 6.0 -12.8°
Maximum altitude 19:25:35 45° 268° (W) 846 3.6 -13.5°
Drops below altitude 10° 19:29:44 10° 196° (SSW) 1,967 4.9 -14.2°
Enters shadow 19:31:48 - 190° (S) 2,787 5.6 -14.5°
